Hattiesburg, MS

4:58 AM CDT on September 27, 2016 (GMT -0500)
Chain Municipal

Weather History for KHBG - December, 2011

Change the Weather History Date:

Friday, December 23, 2011

  Actual Average Record
Temperature  
Mean Temperature 51 °F 50 °F  
Max Temperature 54 °F 61 °F 79 °F (1955)
Min Temperature 47 °F 39 °F 4 °F (1989)
Degree Days  
Heating Degree Days 14 16  
Month to date heating degree days 280 329  
Since 1 July heating degree days 644 657  
Cooling Degree Days 0 0  
Month to date cooling degree days 6 12  
Year to date cooling degree days 2770 2402  
Moisture  
Dew Point 44 °F    
Average Humidity 75    
Maximum Humidity 83    
Minimum Humidity 66    
Precipitation  
Precipitation 0.00 in 0.17 in 2.48 in (2014)
Month to date precipitation 2.22 3.70  
Year to date precipitation 55.12 57.96  
Sea Level Pressure  
Sea Level Pressure 30.28 in    
Wind  
Wind Speed 9 mph (North)    
Max Wind Speed 14 mph    
Max Gust Speed 21 mph    
Visibility 10 miles    
Events      
T = Trace of Precipitation, MM = Missing Value Source: NWS Daily Summary

Daily Weather History Graph

Daily Weather History Graph

Search for Another Location

Airport or City:

Trip Planner

Search our weather history database for the weather conditions in past years. The results will help you decide how hot, cold, wet, or windy it might be!

Date:

Astronomy

Dec. 23, 2011 Rise Set
Actual Time 6:52 AM CST 4:59 PM CST
Civil Twilight 6:25 AM CST 5:26 PM CST
Nautical Twilight 5:55 AM CST 5:56 PM CST
Astronomical Twilight 5:25 AM CST 6:26 PM CST
Moon 5:41 AM CST (12/23) 4:08 PM CST (12/23)
Length of Visible Light 11h 00m
Length of Day
10h 06m
Waning Crescent, 1% of the Moon is Illuminated
Dec 23
Waning Crescent
Dec 24
New
Jan 1
First Quarter
Jan 9
Full
Jan 16
Last Quarter

Hourly Weather History & Observations

Time (CST) Temp. Dew Point Humidity Pressure Visibility Wind Dir Wind Speed Gust Speed Precip Events Conditions
12:53 AM 52.0 °F 46.9 °F 83% 30.17 in 10.0 mi NE 9.2 mph - N/A   Overcast
1:53 AM 52.0 °F 46.9 °F 83% 30.18 in 10.0 mi North 3.5 mph - N/A   Overcast
2:53 AM 52.0 °F 46.9 °F 83% 30.18 in 10.0 mi NE 4.6 mph - N/A   Overcast
3:53 AM 52.0 °F 46.9 °F 83% 30.19 in 10.0 mi North 4.6 mph - N/A   Overcast
4:53 AM 52.0 °F 46.9 °F 83% 30.21 in 10.0 mi North 3.5 mph - N/A   Overcast
6:53 AM 52.0 °F 46.9 °F 83% 30.25 in 10.0 mi North 5.8 mph - N/A   Overcast
7:53 AM 51.1 °F 46.0 °F 83% 30.27 in 10.0 mi North 11.5 mph - N/A   Overcast
8:33 AM 51.8 °F 46.4 °F 82% 30.30 in 10.0 mi North 8.1 mph - N/A   Overcast
8:53 AM 51.1 °F 46.0 °F 83% 30.30 in 10.0 mi North 8.1 mph - N/A   Overcast
9:15 AM 51.8 °F 44.6 °F 76% 30.31 in 10.0 mi NNE 9.2 mph - N/A   Overcast
9:53 AM 50.0 °F 45.0 °F 83% 30.32 in 10.0 mi North 11.5 mph - N/A   Overcast
10:53 AM 51.1 °F 45.0 °F 80% 30.30 in 10.0 mi North 10.4 mph - N/A   Overcast
11:53 AM 52.0 °F 45.0 °F 77% 30.28 in 10.0 mi North 12.7 mph - N/A   Overcast
12:53 PM 53.1 °F 44.1 °F 71% 30.26 in 10.0 mi North 12.7 mph - N/A   Overcast
1:53 PM 53.1 °F 44.1 °F 71% 30.26 in 10.0 mi North 11.5 mph - N/A   Overcast
2:53 PM 53.1 °F 43.0 °F 69% 30.26 in 10.0 mi North 11.5 mph - N/A   Overcast
3:53 PM 52.0 °F 43.0 °F 71% 30.27 in 10.0 mi NNE 8.1 mph - N/A   Overcast
4:53 PM 51.1 °F 43.0 °F 74% 30.29 in 10.0 mi NNE 5.8 mph - N/A   Overcast
5:53 PM 51.1 °F 43.0 °F 74% 30.32 in 10.0 mi North 5.8 mph - N/A   Overcast
6:53 PM 50.0 °F 42.1 °F 74% 30.32 in 10.0 mi North 9.2 mph - N/A   Overcast
7:53 PM 48.9 °F 42.1 °F 77% 30.35 in 10.0 mi North 9.2 mph - N/A   Overcast
8:53 PM 48.9 °F 42.1 °F 77% 30.35 in 10.0 mi North 5.8 mph - N/A   Overcast
9:10 PM 48.2 °F 42.8 °F 82% 30.35 in 10.0 mi NNE 8.1 mph - N/A   Overcast
9:53 PM 48.0 °F 41.0 °F 77% 30.35 in 10.0 mi North 10.4 mph - N/A   Overcast
10:53 PM 46.9 °F 39.9 °F 77% 30.35 in 10.0 mi NNE 12.7 mph - N/A   Overcast
11:53 PM 46.9 °F 39.9 °F 77% 30.35 in 10.0 mi NNE 10.4 mph - N/A   Overcast